Regional Weather Roundup
Issued by NWS

Home | Current Version | Previous Version | Graphics & Text | Print | Product List | Glossary On
Versions: 1 2 3 4 5 6 7 8 9 10 11 12 13 14 15 16 17 18 19 20 21 22 23 24 25 26 27 28 29 30 31 32 33 34 35 36 37 38 39 40 41 42 43 44 45 46 47 48 49 50
000
ASUS43 KFSD 300802
RWRSD

WEATHER ROUNDUP FOR SOUTH DAKOTA
NATIONAL WEATHER SERVICE SIOUX FALLS SD
300 AM CDT SAT APR 30 2016

NOTE: "FAIR" INDICATES FEW OR NO CLOUDS BELOW 12,000 FEET WITH NO
SIGNIFICANT WEATHER AND/OR OBSTRUCTIONS TO VISIBILITY.


SDZ001>005-009-010-012>017-300900-
NORTHWEST AND NORTH CENTRAL SOUTH DAKOTA

CITY           SKY/WX    TMP DP  RH WIND       PRES   REMARKS
BUFFALO          N/A     41  34  76 N6        30.01S
FAITH            N/A     41  36  82 N6        30.06F
MOBRIDGE       CLOUDY    42  39  89 NE7       30.05F
$$

SDZ012>016-024>037-041>051-057-063-072>074-300900-
SOUTHWEST AND SOUTH CENTRAL SOUTH DAKOTA

CITY           SKY/WX    TMP DP  RH WIND       PRES   REMARKS
RAPID CTY ARPT CLOUDY    40  37  89 N8        30.03F
PIERRE         CLOUDY    41  38  89 NE12      30.02S
CUSTER         FOG       32  30  92 NE18      29.96F VSB 1/4 WCI  20
ELLSWORTH AFB  CLOUDY    41  39  93 N8        30.02F
PHILIP         CLOUDY    41  37  86 NE9       30.02F
PINE RIDGE     LGT RAIN  37  34  89 NE9       29.96F
WINNER         CLOUDY    44  39  82 NE10      29.96F
$$

SDZ004>011-016>023-039-040-300900-
NORTHEAST SOUTH DAKOTA

CITY           SKY/WX    TMP DP  RH WIND       PRES   REMARKS
ABERDEEN       PTCLDY    39  35  86 E5        30.09S
WATERTOWN      CLOUDY    36  33  89 N5        30.05F
BROOKINGS      PTCLDY    37  35  92 NE8       30.02F
SISSETON         N/A     36  34  92 CALM      30.10S
$$

SDZ017-020-022-023-036>040-048>070-300900-
SOUTHEAST SOUTH DAKOTA

CITY           SKY/WX    TMP DP  RH WIND       PRES   REMARKS
SIOUX FALLS    CLOUDY    43  39  86 NE12      29.98F
HURON          PTCLDY    42  39  89 NE9       30.01F
MITCHELL       PTCLDY    44  41  89 NE10      29.99F
YANKTON        CLOUDY    45  37  76 NE15      29.93F
$$

ABBREVIATIONS USED IN REMARKS
   TC - TEMPERATURE IN CELSIUS
  WCI - WIND CHILL INDEX
   HX - HEAT INDEX
  VSB - VISIBILITY




USA.gov is the U.S. government's official web portal to all federal, state and local government web resources and services.